Weather History for Gadsden, AL

Change the Weather History Date:

Tuesday, March 5, 2013

  Actual Average Record
Temperature  
Mean Temperature 50 °F -  
Max Temperature 64 °F 58 °F 80 °F (1938)
Min Temperature 35 °F 36 °F 17 °F (2002)
Degree Days  
Heating Degree Days 16    
Moisture  
Dew Point 42 °F    
Average Humidity 71    
Maximum Humidity 82    
Minimum Humidity 54    
Precipitation  
Precipitation 0.38 in - - ()
Sea Level Pressure  
Sea Level Pressure 29.93 in    
Wind  
Wind Speed 9 mph (WSW)    
Max Wind Speed 24 mph    
Max Gust Speed 39 mph    
Visibility 10 miles    
Events Thunderstorm    
Averages and records for this station are not official NWS values.
T = Trace of Precipitation, MM = Missing Value Source: NWS Daily Summary

Daily Weather History Graph

Daily Weather History Graph

Search for Another Location

Airport:

Trip Planner

Search our weather history database for the weather conditions in past years. The results will help you decide how hot, cold, wet, or windy it might be!

Date:

Astronomy

Mar. 05, 2013 Rise Set
Actual Time 6:07 AM CST 5:44 PM CST
Civil Twilight 5:42 AM CST 6:09 PM CST
Nautical Twilight 5:13 AM CST 6:38 PM CST
Astronomical Twilight 4:44 AM CST 7:07 PM CST
Moon 1:07 AM CST (3/5) 11:34 AM CST (3/5)
Length of Visible Light 12h 26m
Length of Day
11h 36m
Last Quarter, 40% of the Moon is Illuminated
Mar 5
Last Quarter
Mar 11
New
Mar 19
First Quarter
Mar 27
Full
Apr 2
Last Quarter

Hourly Weather History & Observations

Time (CST) Temp. Windchill Dew Point Humidity Pressure Visibility Wind Dir Wind Speed Gust Speed Precip Events Conditions
12:15 AM 55.4 °F - 39.2 °F 54% 30.00 in 10.0 mi SSW 4.6 mph - N/A   Overcast
1:35 AM 53.6 °F - 42.8 °F 67% 29.98 in 10.0 mi SSW 5.8 mph - N/A   Mostly Cloudy
1:55 AM 53.6 °F - 44.6 °F 72% 29.97 in 10.0 mi SW 8.1 mph - N/A   Overcast
2:15 AM 53.6 °F - 44.6 °F 72% 29.97 in 10.0 mi South 6.9 mph - N/A   Overcast
2:35 AM 53.6 °F - 44.6 °F 72% 29.97 in 10.0 mi SSW 4.6 mph - N/A   Overcast
2:55 AM 53.6 °F - 44.6 °F 72% 29.96 in 10.0 mi SSW 8.1 mph - N/A   Overcast
3:15 AM 53.6 °F - 44.6 °F 72% 29.95 in 10.0 mi South 8.1 mph 16.1 mph N/A   Overcast
3:35 AM 53.6 °F - 44.6 °F 72% 29.95 in 10.0 mi SSW 5.8 mph - N/A   Overcast
3:55 AM 53.6 °F - 46.4 °F 77% 29.96 in 10.0 mi South 5.8 mph - N/A   Overcast
4:15 AM 53.6 °F - 46.4 °F 77% 29.96 in 10.0 mi SSW 8.1 mph - N/A   Overcast
4:35 AM 53.6 °F - 46.4 °F 77% 29.96 in 10.0 mi South 6.9 mph - N/A   Overcast
4:55 AM 53.6 °F - 46.4 °F 77% 29.96 in 10.0 mi SW 8.1 mph - N/A   Mostly Cloudy
5:15 AM 53.6 °F - 46.4 °F 77% 29.96 in 10.0 mi SSW 6.9 mph - N/A   Overcast
5:35 AM 53.6 °F - 46.4 °F 77% 29.96 in 10.0 mi SSW 5.8 mph - N/A   Overcast
5:55 AM 53.6 °F - 46.4 °F 77% 29.96 in 10.0 mi SSW 9.2 mph - N/A   Overcast
6:15 AM 53.6 °F - 46.4 °F 77% 29.96 in 10.0 mi SSW 6.9 mph - N/A   Overcast
6:35 AM 53.6 °F - 46.4 °F 77% 29.95 in 10.0 mi SSW 6.9 mph - N/A   Overcast
7:35 AM 55.4 °F - 46.4 °F 72% 29.95 in 10.0 mi SW 11.5 mph 18.4 mph N/A   Overcast
7:55 AM 55.4 °F - 46.4 °F 72% 29.95 in 10.0 mi SSW 6.9 mph - N/A   Mostly Cloudy
8:15 AM 55.4 °F - 48.2 °F 77% 29.93 in 10.0 mi SSW 5.8 mph - N/A   Mostly Cloudy
8:35 AM 57.2 °F - 48.2 °F 72% 29.92 in 10.0 mi SSW 11.5 mph 16.1 mph N/A   Mostly Cloudy
8:55 AM 57.2 °F - 48.2 °F 72% 29.92 in 10.0 mi SSW 8.1 mph 19.6 mph N/A   Overcast
9:15 AM 59.0 °F - 48.2 °F 67% 29.91 in 10.0 mi SW 9.2 mph 18.4 mph N/A   Overcast
9:35 AM 59.0 °F - 48.2 °F 67% 29.90 in 10.0 mi SSW 9.2 mph 16.1 mph N/A   Overcast
9:55 AM 59.0 °F - 48.2 °F 67% 29.89 in 10.0 mi SW 8.1 mph 17.3 mph N/A   Overcast
10:15 AM 60.8 °F - 50.0 °F 68% 29.88 in 10.0 mi SSW 9.2 mph 18.4 mph N/A   Overcast
10:35 AM 59.0 °F - 50.0 °F 72% 29.87 in 10.0 mi SW 8.1 mph - N/A   Overcast
10:55 AM 57.2 °F - 51.8 °F 82% 29.86 in 10.0 mi SW 6.9 mph - N/A   Overcast
11:15 AM 59.0 °F - 51.8 °F 77% 29.85 in 10.0 mi SSW 5.8 mph - N/A   Overcast
11:35 AM 60.8 °F - 51.8 °F 72% 29.82 in 10.0 mi South 8.1 mph - N/A   Overcast
11:55 AM 62.6 °F - 51.8 °F 68% 29.79 in 10.0 mi SSW 9.2 mph 19.6 mph N/A   Overcast
12:15 PM 62.6 °F - 53.6 °F 72% 29.76 in 10.0 mi SSW 10.4 mph 17.3 mph N/A   Overcast
12:35 PM 64.4 °F - 53.6 °F 68% 29.76 in 10.0 mi SW 8.1 mph 17.3 mph N/A   Overcast
12:55 PM 60.8 °F - 53.6 °F 77% 29.76 in 7.0 mi SW 9.2 mph 18.4 mph 0.02 in   Overcast
1:15 PM 60.8 °F - 55.4 °F 82% 29.74 in 10.0 mi SW 9.2 mph - 0.02 in   Overcast
1:35 PM 60.8 °F - 55.4 °F 82% 29.72 in 9.0 mi SSW 6.9 mph - 0.05 in   Overcast
1:55 PM 60.8 °F - 55.4 °F 82% 29.73 in 6.0 mi SW 12.7 mph 18.4 mph 0.21 in Thunderstorm Thunderstorm
2:15 PM 60.8 °F - 53.6 °F 77% 29.77 in 10.0 mi West 17.3 mph 32.2 mph 0.15 in   Overcast
2:35 PM 60.8 °F - 53.6 °F 77% 29.77 in 10.0 mi West 19.6 mph 24.2 mph 0.15 in   Mostly Cloudy
2:55 PM 60.8 °F - 51.8 °F 72% 29.78 in 10.0 mi West 19.6 mph 35.7 mph 0.15 in   Mostly Cloudy
3:15 PM 57.2 °F - 48.2 °F 72% 29.81 in 10.0 mi WNW 13.8 mph 39.1 mph N/A   Mostly Cloudy
3:35 PM 57.2 °F - 44.6 °F 63% 29.83 in 10.0 mi WNW 15.0 mph 28.8 mph N/A   Overcast
3:55 PM 53.6 °F - 42.8 °F 67% 29.86 in 10.0 mi WNW 19.6 mph 34.5 mph N/A   Overcast
4:15 PM 51.8 °F - 41.0 °F 67% 29.89 in 10.0 mi WNW 24.2 mph 32.2 mph N/A   Overcast
4:35 PM 48.2 °F - 37.4 °F 66% 29.93 in 10.0 mi West 15.0 mph 33.4 mph N/A   Overcast
4:55 PM 44.6 °F 36.9 °F 35.6 °F 71% 29.96 in 10.0 mi WNW 18.4 mph 34.5 mph N/A   Overcast
5:15 PM 44.6 °F 38.4 °F 33.8 °F 66% 29.98 in 10.0 mi WNW 12.7 mph 20.7 mph N/A   Overcast
5:35 PM 42.8 °F 34.8 °F 32.0 °F 66% 30.00 in 10.0 mi NW 17.3 mph 26.5 mph N/A   Overcast
5:55 PM 42.8 °F 35.4 °F 30.2 °F 61% 30.02 in 10.0 mi WNW 15.0 mph 29.9 mph N/A   Overcast
6:15 PM 41.0 °F 32.8 °F 30.2 °F 65% 30.03 in 10.0 mi WNW 16.1 mph 32.2 mph N/A   Overcast
6:35 PM 41.0 °F 32.5 °F 30.2 °F 65% 30.04 in 10.0 mi NW 17.3 mph 27.6 mph N/A   Overcast
6:55 PM 41.0 °F 34.3 °F 30.2 °F 65% 30.04 in 10.0 mi NW 11.5 mph 21.9 mph N/A   Overcast
7:15 PM 41.0 °F 34.3 °F 28.4 °F 61% 30.04 in 10.0 mi NW 11.5 mph 20.7 mph N/A   Overcast
7:35 PM 41.0 °F 34.7 °F 28.4 °F 61% 30.04 in 10.0 mi WNW 10.4 mph 16.1 mph N/A   Overcast
7:55 PM 39.2 °F 34.2 °F 28.4 °F 65% 30.04 in 10.0 mi West 6.9 mph - N/A   Overcast
8:15 PM 39.2 °F 35.0 °F 30.2 °F 70% 30.04 in 10.0 mi NW 5.8 mph - N/A   Overcast
8:35 PM 39.2 °F 34.2 °F 30.2 °F 70% 30.03 in 10.0 mi West 6.9 mph - N/A   Mostly Cloudy
8:55 PM 37.4 °F 32.8 °F 30.2 °F 75% 30.03 in 10.0 mi West 5.8 mph - N/A   Mostly Cloudy
9:15 PM 37.4 °F 32.8 °F 30.2 °F 75% 30.03 in 10.0 mi West 5.8 mph - N/A   Partly Cloudy
9:35 PM 35.6 °F 30.7 °F 30.2 °F 81% 30.03 in 10.0 mi WSW 5.8 mph - N/A   Clear
9:55 PM 37.4 °F 32.1 °F 30.2 °F 75% 30.02 in 10.0 mi West 6.9 mph - N/A   Mostly Cloudy
10:15 PM 39.2 °F 32.5 °F 30.2 °F 70% 30.02 in 10.0 mi West 10.4 mph - N/A   Mostly Cloudy
10:35 PM 39.2 °F 32.0 °F 30.2 °F 70% 30.02 in 10.0 mi West 11.5 mph 20.7 mph N/A   Partly Cloudy
10:55 PM 39.2 °F 33.0 °F 28.4 °F 65% 30.02 in 10.0 mi West 9.2 mph 16.1 mph N/A   Partly Cloudy
11:15 PM 39.2 °F 32.0 °F 28.4 °F 65% 30.02 in 10.0 mi West 11.5 mph 16.1 mph N/A   Partly Cloudy
11:35 PM 39.2 °F 31.6 °F 26.6 °F 61% 30.01 in 10.0 mi West 12.7 mph 17.3 mph N/A   Clear
11:55 PM 39.2 °F 31.6 °F 26.6 °F 61% 30.01 in 10.0 mi West 12.7 mph 17.3 mph N/A   Clear